NOAA NWS Hourly Roundups by Site

Regional Weather Roundup for Indianapolis, IN

To Select Another Site Choose from List

Select Site:  

000
ASUS43 KIND 032210
RWRIN

WEATHER ROUNDUP FOR INDIANA
NATIONAL WEATHER SERVICE INDIANAPOLIS IN
500 PM EST SUN MAR 03 2024

NOTE: "FAIR" INDICATES FEW OR NO CLOUDS BELOW 12,000 FEET WITH NO
SIGNIFICANT WEATHER AND/OR OBSTRUCTIONS TO VISIBILITY.

* - STATION DOES NOT REPORT WEATHER SUCH AS PRECIPITATION OR FOG.

+ - STATION NOT QUALITY CONTROLLED BY THE NATIONAL WEATHER SERVICE.
    USE DATA WITH CAUTION...ESPECIALLY DEWPOINT AND RELATIVE
    HUMIDITY OBSERVATIONS.

INZ001>003-010>013-019-020-032300-
NORTHWEST INDIANA

CITY           SKY/WX    TMP DP  RH WIND       PRES   REMARKS
GARY /AIRPORT/ SUNNY     73  41  31 S21G36    29.79S
KNOX *+        SUNNY     68  34  28 S21       29.85F
LA PORTE +     MOSUNNY   67  42  39 S16G24    29.86S
MICHIGAN CITY+ MOSUNNY   68  45  42 S12G23    29.84S
MONTICELLO +   SUNNY     69  42  38 S14       29.86F
RENSSELAER +   SUNNY     70  37  30 S17G29    29.85S
VALPARAISO     MOSUNNY   70  44  39 S16G31    29.84F

$$

LMZ046-743>745-032300-
SOUTHERN LAKE MICHIGAN

STATION/POSITION TIME  TEMP WIND        PRES
                       AIR  DIR/SP/G
                 (UTC) (F)  (DEG/KT/KT) (MB)
BURNS HARBOR     2140   71  170/ 13/ 17 1010.2F
MICHIGAN CITY    2140   69  150/ 16/ 21 1008.7F

$$

INZ004-005-014>016-021>024-032300-
NORTH CENTRAL INDIANA

CITY           SKY/WX    TMP DP  RH WIND       PRES   REMARKS
ELKHART        SUNNY     66  45  46 S18       29.90S
GOSHEN         SUNNY     65  45  48 S17       29.90F
LOGANSPORT +   SUNNY     68  45  42 S16       29.91S
PERU/GRISSOM   SUNNY     68  48  47 S18       29.89S
ROCHESTER +    SUNNY     64  50  59 S13G20    29.90F
SOUTH BEND     SUNNY     67  46  47 SE20G28   29.88F
WARSAW +       SUNNY     65  47  51 S9G18     29.92S

$$

INZ006>009-017-018-025>027-032300-
NORTHEAST INDIANA

CITY           SKY/WX    TMP DP  RH WIND       PRES   REMARKS
ANGOLA *+      SUNNY     64  46  52 S14G23    29.94S
AUBURN +       SUNNY     64  45  48 SE10G17   29.96S
FORT WAYNE     MOSUNNY   65  46  50 S15G24    29.96S
HUNTINGTON +   SUNNY     65  47  52 SE10      29.94F
KENDALLVILLE + SUNNY     64  48  54 S15       29.95S

$$

INZ028-029-035-036-043>045-051>053-032300-
WEST CENTRAL INDIANA

CITY           SKY/WX    TMP DP  RH WIND       PRES   REMARKS
CRAWFORDSVL +  SUNNY     68  32  26 S15G21    29.89S
LAFAYETTE      SUNNY     72  35  25 S16G29    29.86F
TERRE HAUTE    SUNNY     71  46  40 S20G29    29.88F

$$

INZ030>032-037>040-046>048-054>057-064-065-032300-
CENTRAL INDIANA

CITY           SKY/WX    TMP DP  RH WIND       PRES   REMARKS
ANDERSON       SUNNY     66  44  44 S12G18    29.95
COLUMBUS       SUNNY     66  45  45 S10G20    29.96F
FISHERS *+     SUNNY     66  47  51 S16       29.94S
FRANKFORT +    SUNNY     70  43  37 S18G25    29.88F
GREENWOOD *+   SUNNY     67  42  40 S14G24    29.95R
INDIANAPOLIS   PTSUNNY   68  47  46 S17G25    29.91S
-EAGLE CREEK   SUNNY     70  47  43 SE10G22   29.91S
KOKOMO +       SUNNY     67  49  52 S15       29.93S
MT COMFORT *+  MOSUNNY   66  47  51 S15G23    29.95S
SHELBYVILLE    SUNNY     69  47  45 S20G28    29.94F
ZIONSVILLE +   SUNNY     67  47  48 S14G22    29.92S

$$

INZ033-034-041-042-049-050-058-059-032300-
EAST CENTRAL INDIANA

CITY           SKY/WX    TMP DP  RH WIND       PRES   REMARKS
MUNCIE         SUNNY     67  44  43 S14G24    29.94F

$$

INZ060-061-067>069-081>083-085>088-032300-
SOUTHWEST INDIANA

CITY           SKY/WX    TMP DP  RH WIND       PRES   REMARKS
EVANSVILLE     SUNNY     74  50  42 S14G26    29.92S
HUNTINGBURG *+ SUNNY     71  51  49 S17G26    29.94F
WASHINGTON +   SUNNY     70  44  39 S17G24    29.92R

$$

INZ062-063-066-070>080-084-089>092-032300-
SOUTH CENTRAL AND SOUTHEAST INDIANA

CITY           SKY/WX    TMP DP  RH WIND       PRES   REMARKS
BEDFORD +      SUNNY     70  45  40 SE13G18   29.93F
BLOOMINGTON    SUNNY     71  41  33 S14G28    29.92S
MADISON *+     SUNNY     66  48  52 SE8G17    30.00F

$$



 

View Past Reports for Indianapolis, IN.

Products Courtesy of NOAA-NWS
NWS Information Parsing Script by Ken True at Saratoga Weather - Script by SE Lincoln Weather.